Brookhaven, MS

10:33 AM CST on February 10, 2016 (GMT -0600)
Brookhaven

Weather History for K1R7 - May, 2014

Change the Weather History Date:

Thursday, May 15, 2014

  Actual Average Record
Temperature  
Mean Temperature 58 °F -  
Max Temperature 69 °F - - ()
Min Temperature 46 °F - - ()
Degree Days  
Heating Degree Days 8    
Growing Degree Days 8 (Base 50)    
Moisture  
Dew Point 47 °F    
Average Humidity 75    
Maximum Humidity 100    
Minimum Humidity 40    
Precipitation  
Precipitation 0.00 in - - ()
Sea Level Pressure  
Sea Level Pressure 30.19 in    
Wind  
Wind Speed 8 mph (NW)    
Max Wind Speed 15 mph    
Max Gust Speed 23 mph    
T = Trace of Precipitation, MM = Missing Value Source: NWS Daily Summary

Daily Weather History Graph

Daily Weather History Graph

Search for Another Location

Airport or City:

Trip Planner

Search our weather history database for the weather conditions in past years. The results will help you decide how hot, cold, wet, or windy it might be!

Date:

Astronomy

May. 15, 2014 Rise Set
Actual Time 6:05 AM CDT 7:51 PM CDT
Civil Twilight 5:38 AM CDT 8:18 PM CDT
Nautical Twilight 5:06 AM CDT 8:50 PM CDT
Astronomical Twilight 4:32 AM CDT 9:24 PM CDT
Moon 8:59 PM CDT (5/15) 6:51 AM CDT (5/15)
Length of Visible Light 14h 39m
Length of Day
13h 46m
Full, 99% of the Moon is Illuminated
May 15
Full
May 21
Last Quarter
May 28
New
Jun 5
First Quarter
Jun 12
Full

Hourly Weather History & Observations

Time (CDT) Temp. Windchill Dew Point Humidity Pressure Visibility Wind Dir Wind Speed Gust Speed Precip Events Conditions
12:15 AM 53.6 °F - 51.8 °F 94% 30.14 in - NW 10.4 mph - N/A   Mostly Cloudy
12:35 AM 53.6 °F - 46.4 °F 77% 30.15 in - NNW 12.7 mph 16.1 mph N/A   Mostly Cloudy
12:55 AM 51.8 °F - 46.4 °F 82% 30.15 in - NW 8.1 mph - N/A   Clear
1:15 AM 51.8 °F - 46.4 °F 82% 30.15 in - NNW 8.1 mph - N/A   Clear
1:35 AM 50.0 °F - 46.4 °F 87% 30.15 in - NW 6.9 mph - N/A   Clear
1:55 AM 48.2 °F - 46.4 °F 93% 30.15 in - NW 8.1 mph - N/A   Clear
2:15 AM 48.2 °F - 46.4 °F 93% 30.16 in - NNW 4.6 mph - N/A   Clear
2:35 AM 48.2 °F - 46.4 °F 93% 30.15 in - NW 6.9 mph - N/A   Clear
2:55 AM 48.2 °F - 46.4 °F 93% 30.15 in - WNW 5.8 mph - N/A   Clear
3:15 AM 48.2 °F - 46.4 °F 93% 30.15 in - NW 5.8 mph - N/A   Clear
3:35 AM 46.4 °F 43.5 °F 46.4 °F 100% 30.15 in - NW 5.8 mph - N/A   Clear
3:55 AM 46.4 °F 43.5 °F 46.4 °F 100% 30.15 in - NW 5.8 mph - N/A   Clear
4:15 AM 46.4 °F 43.5 °F 46.4 °F 100% 30.15 in - NW 5.8 mph - N/A   Clear
4:35 AM 46.4 °F 42.9 °F 46.4 °F 100% 30.15 in - NW 6.9 mph - N/A   Clear
4:55 AM 46.4 °F 44.3 °F 46.4 °F 100% 30.15 in - NW 4.6 mph - N/A   Clear
5:15 AM 46.4 °F 43.5 °F 46.4 °F 100% 30.15 in - NW 5.8 mph - N/A   Clear
5:35 AM 46.4 °F 44.3 °F 46.4 °F 100% 30.16 in - NW 4.6 mph - N/A   Clear
6:15 AM 46.4 °F 43.5 °F 44.6 °F 93% 30.17 in - NW 5.8 mph - N/A   Clear
6:35 AM 46.4 °F 42.9 °F 46.4 °F 100% 30.17 in - WNW 6.9 mph - N/A   Clear
6:55 AM 46.4 °F 43.5 °F 46.4 °F 100% 30.18 in - NW 5.8 mph - N/A   Clear
7:15 AM 46.4 °F 41.9 °F 46.4 °F 100% 30.19 in - NW 9.2 mph - N/A   Clear
7:35 AM 48.2 °F - 46.4 °F 93% 30.20 in - NW 6.9 mph - N/A   Clear
7:55 AM 48.2 °F - 46.4 °F 93% 30.20 in - NW 10.4 mph - N/A   Clear
8:15 AM 51.8 °F - 46.4 °F 82% 30.21 in - NW 10.4 mph - N/A   Clear
8:35 AM 51.8 °F - 44.6 °F 76% 30.22 in - NW 10.4 mph - N/A   Clear
9:15 AM 53.6 °F - 44.6 °F 72% 30.23 in - NW 11.5 mph - N/A   Clear
9:35 AM 55.4 °F - 44.6 °F 67% 30.24 in - NNW 10.4 mph 19.6 mph N/A   Clear
9:55 AM 55.4 °F - 44.6 °F 67% 30.24 in - North 15.0 mph 19.6 mph N/A   Clear
10:15 AM 57.2 °F - 46.4 °F 67% 30.24 in - NNW 8.1 mph - N/A   Clear
10:35 AM 59.0 °F - 44.6 °F 59% 30.25 in - North 11.5 mph 17.3 mph N/A   Clear
11:15 AM 60.8 °F - 44.6 °F 55% 30.25 in - North 12.7 mph 18.4 mph N/A   Clear
11:35 AM 60.8 °F - 44.6 °F 55% 30.24 in - NNW 9.2 mph 19.6 mph N/A   Clear
11:55 AM 60.8 °F - 44.6 °F 55% 30.24 in - North 9.2 mph - N/A   Clear
12:15 PM 62.6 °F - 44.6 °F 52% 30.23 in - North 12.7 mph 20.7 mph N/A   Clear
12:35 PM 62.6 °F - 44.6 °F 52% 30.23 in - NW 11.5 mph 18.4 mph N/A   Clear
1:15 PM 64.4 °F - 44.6 °F 49% 30.23 in - North 11.5 mph 23.0 mph N/A   Clear
1:55 PM 66.2 °F - 44.6 °F 46% 30.22 in - North 9.2 mph - N/A   Clear
2:35 PM 66.2 °F - 46.4 °F 49% 30.22 in - WNW 11.5 mph 16.1 mph N/A   Clear
2:55 PM 68.0 °F - 46.4 °F 46% 30.21 in - North 15.0 mph - N/A   Clear
3:15 PM 68.0 °F - 46.4 °F 46% 30.20 in - NW 3.5 mph - N/A   Clear
3:35 PM 68.0 °F - 46.4 °F 46% 30.20 in - NW 12.7 mph - N/A   Clear
3:55 PM 68.0 °F - 44.6 °F 43% 30.19 in - NNW 10.4 mph 17.3 mph N/A   Clear
4:15 PM 68.0 °F - 44.6 °F 43% 30.18 in - North 11.5 mph - N/A   Clear
4:35 PM 68.0 °F - 44.6 °F 43% 30.18 in - NW 9.2 mph - N/A   Clear
4:55 PM 69.8 °F - 46.4 °F 43% 30.17 in - NW 10.4 mph - N/A   Clear
5:15 PM 69.8 °F - 44.6 °F 40% 30.17 in - WNW 6.9 mph - N/A   Clear
5:35 PM 69.8 °F - 46.4 °F 43% 30.16 in - NNW 5.8 mph - N/A   Clear
6:15 PM 68.0 °F - 44.6 °F 43% 30.16 in - NW 8.1 mph - N/A   Clear
6:35 PM 66.2 °F - 44.6 °F 46% 30.16 in - NW 5.8 mph - N/A   Clear
6:55 PM 66.2 °F - 44.6 °F 46% 30.16 in - WNW 4.6 mph - N/A   Clear
7:15 PM 66.2 °F - 46.4 °F 49% 30.17 in - Calm Calm - N/A   Clear
7:35 PM 64.4 °F - 48.2 °F 56% 30.16 in - Calm Calm - N/A   Clear
7:55 PM 59.0 °F - 51.8 °F 77% 30.16 in - Calm Calm - N/A   Clear
8:15 PM 57.2 °F - 51.8 °F 82% 30.17 in - Calm Calm - N/A   Clear
8:35 PM 55.4 °F - 51.8 °F 88% 30.17 in - Calm Calm - N/A   Clear
8:55 PM 53.6 °F - 51.8 °F 94% 30.17 in - Calm Calm - N/A   Clear
9:15 PM 53.6 °F - 51.8 °F 94% 30.18 in - Calm Calm - N/A   Clear
9:35 PM 53.6 °F - 51.8 °F 94% 30.19 in - Calm Calm - N/A   Clear
10:15 PM 51.8 °F - 51.8 °F 100% 30.22 in - Calm Calm - N/A   Clear
10:35 PM 51.8 °F - 51.8 °F 100% 30.22 in - Calm Calm - N/A   Clear
10:55 PM 51.8 °F - 50.0 °F 94% 30.22 in - Calm Calm - N/A   Clear
11:15 PM 51.8 °F - 50.0 °F 94% 30.21 in - Calm Calm - N/A   Clear
11:35 PM 51.8 °F - 50.0 °F 94% 30.20 in - Calm Calm - N/A   Clear